Content
SEND FEEDBACK

Daily
Averages
Monthly
Summary
United States of America

ANN ARBOR, MICHIGAN


Home > North America > United States > Michigan
Elevation: 759 feet     Latitude: 42 17N     Longitude: 083 43W

WEATHER
 
SELECT A DAY
Number of Records: 204,264;   Date Range: 1/1/95 - 9/13/14
 
SHARE

PRINT THIS DATA

[ ← Previous Day ]
WEATHER ALMANAC - JULY 24, 2013
[ Next Day → ]
[ °C ]   °F
Weather ElementAverageHighLow
Temperature63.2 °F73 °F (3:53 pm)53.1 °F (11:53 pm)
Dewpoint50.3 °F52 °F (1:53 pm)48 °F (4:53 am)
Humidity64.1 %93 % (11:53 pm)46 % (5:53 pm)
Barometer29.99 in30.06 in (11:53 pm)29.90 in (2:53 am)
Wind Speed6.1 mph11.5 mph (10:53 am)
Wind Gust17.3 mph (11:53 am)
Weather ElementAverage
Visibility10 mi
Wind DirectionESE (112.8 °)

Weather ElementTotal
Precipitation---
Heating Degree Days2 (Base 65)
Growing Degree Days13.1 (Base 50)
Averaged from 25 records on July 24, 2013
WEATHER CONDITIONS BREAKOUT
WIND DIRECTION BREAKOUT
WEATHER BY HOUR - JULY 24, 2013
[ °C ]   °F
Local TimeTemperatureDewpointHumidityBarometerVisibilityWind DirectionWind SpeedGust SpeedPrecipitationEventsConditions
1:53 AM61.0 °F51.1 °F70 %29.91 in10.0 miNorth (350°)6.9 mphOvercast
2:53 AM60.1 °F50.0 °F69 %29.90 in10.0 miNorth (360°)8.1 mphOvercast
3:53 AM57.9 °F50.0 °F75 %29.91 in10.0 miNorth (360°)8.1 mphPartly Cloudy
4:53 AM60.1 °F48.0 °F64 %29.91 in10.0 miNNE (20°)9.2 mphOvercast
5:53 AM59.0 °F48.9 °F69 %29.93 in10.0 miNorth (10°)6.9 mphOvercast
6:38 AM57.2 °F48.2 °F72 %29.96 in10.0 miNorth (350°)6.9 mphOvercast
6:49 AM57.2 °F48.2 °F72 %29.97 in10.0 miNorth (350°)6.9 mphOvercast
6:53 AM57.0 °F48.0 °F72 %29.96 in10.0 miNorth (350°)8.1 mphOvercast
7:53 AM57.0 °F48.0 °F72 %29.98 in10.0 miNorth (360°)9.2 mphMostly Cloudy
8:53 AM60.1 °F50.0 °F69 %30.00 in10.0 miNNE (20°)10.4 mphPartly Cloudy
9:53 AM63.0 °F50.0 °F63 %30.01 in10.0 miNNE (20°)9.2 mphPartly Cloudy
10:53 AM64.9 °F50.0 °F58 %30.02 in10.0 miNE (40°)11.5 mphClear
11:53 AM66.0 °F51.1 °F59 %30.03 in10.0 miNorth (10°)8.1 mph17.3 mphPartly Cloudy
12:53 PM68.0 °F51.1 °F55 %30.03 in10.0 miVariable6.9 mphClear
1:53 PM70.0 °F52.0 °F53 %30.02 in10.0 miNorth (10°)4.6 mphScattered Clouds
2:53 PM71.1 °F52.0 °F51 %30.01 in10.0 miVariable5.8 mphPartly Cloudy
3:53 PM73.0 °F52.0 °F48 %30.01 in10.0 miENE (60°)8.1 mphPartly Cloudy
4:53 PM72.0 °F51.1 °F48 %30.01 in10.0 miNNE (30°)3.5 mphPartly Cloudy
5:53 PM72.0 °F50.0 °F46 %30.00 in10.0 miCalmClear
6:53 PM69.1 °F51.1 °F53 %30.01 in10.0 miNNE (30°)4.6 mphScattered Clouds
7:53 PM66.9 °F51.1 °F57 %30.02 in10.0 miNE (50°)3.5 mphClear
8:53 PM64.9 °F51.1 °F61 %30.03 in10.0 miNE (40°)5.8 mphScattered Clouds
9:53 PM62.1 °F52.0 °F70 %30.04 in10.0 miCalmClear
10:53 PM57.0 °F52.0 °F83 %30.05 in10.0 miCalmClear
11:53 PM53.1 °F51.1 °F93 %30.06 in10.0 miCalmClear
Hourly data recorded from KARB, located miles away from Ann Arbor, Michigan







STORIES FROM OUR PARTNERS